Location: Unspecified
(0.0000°N, 0.0000°E)
Time: 01:28:06
(UTC+00:00)

A-11 Canister half - Pass Details

Date: 10 October 2023
Orbit: 1515 x 1684 km, 47.2° (Epoch: 11 September)

Event Time Altitude Azimuth Distance (km) Brightness Sun altitude
Rises 10:34:01 0° 199° (SSW) 4,917 11.7 70.6°
Reaches altitude 10° 10:37:49 10° 188° (S) 3,940 11.4 71.5°
Maximum altitude 10:46:11 29° 132° (SE) 2,733 11.1 73.4°
Drops below altitude 10° 10:54:28 10° 76° (ENE) 3,924 11.5 75.3°
Sets 10:58:11 0° 65° (ENE) 4,895 11.8 76.1°
